Flag for China Weather past 2 weeks in Dalian, Liaoning, China

Now
64 °F

Sunny.


Feels Like: 64 °F
Forecast: 52 / 62 °F
Wind: 13 mph from Northwest

Location: Dalian Airport

Current Time: Apr 22, 2015 at 10:07:04 AM

Latest Report: Apr 22, 2015 at 9:30 AM


Visibility: 10 mi

Pressure: 30.09 "Hg

Humidity: 40%

Dew point: 39 °F

Location of DalianLocation

Historic Weather in Dalian — Graph

°F

Dalian temperature yesterday

Maximum temperature yesterday: 72 °F (at 1:00 PM)
Minimum temperature yesterday: 54 °F (at 7:30 PM)
Average temperature yesterday: 62 °F

Past Weeks' High & Low Weather Summary

 TemperatureHumidityPressure
High73 °F (Apr 15, 12:00 PM)93% (Apr 13, 5:30 AM)30.51 "Hg (Apr 13, 5:30 AM)
Low30 °F (Apr 8, 3:30 AM)10% (Apr 20, 5:00 PM)29.47 "Hg (Apr 15, 7:00 PM)
Average52 °F50%30.01 "Hg
* Reported Apr 7 8:00 AM — Apr 22 8:30 AM, Dalian, Weather by CustomWeather, © 2015

Note: Actual official high and low records may vary slightly from our data, if they occured in-between our weather recording intervals... More about our weather records

Advertising

Dalian weather history for previous 24 hours

 ConditionsComfort  
Time TempWeatherWind HumidityBarometerVisibility
8:30 AM
Wed, Apr 22
63 °FPassing clouds.8 mph45%30.09 "HgN/A
8:00 AM61 °FSunny.6 mph45%30.09 "Hg10 mi
7:30 AM59 °FSunny.8 mph51%30.07 "Hg10 mi
6:30 AM52 °FClear.3 mph72%30.07 "Hg4 mi
6:00 AM48 °FClear.3 mph71%30.04 "Hg4 mi
5:00 AM48 °FClear.6 mph71%30.04 "Hg10 mi
4:30 AM50 °FClear.6 mph62%30.01 "Hg10 mi
4:00 AM50 °FClear.3 mph67%30.01 "Hg10 mi
3:30 AM54 °FClear.8 mph54%30.01 "Hg10 mi
3:00 AM54 °FClear.6 mph58%30.01 "Hg10 mi
2:30 AM52 °FClear.6 mph62%29.98 "Hg10 mi
2:00 AM48 °FClear.6 mph82%29.98 "Hg10 mi
1:30 AM50 °FClear.6 mph76%29.98 "Hg10 mi
1:00 AM52 °FClear.6 mph72%29.98 "Hg10 mi
12:30 AM52 °FClear.1 mph77%29.98 "Hg10 mi
12:00 AM54 °FPassing clouds.1 mph67%29.98 "HgN/A
11:30 PM
Tue, Apr 21
54 °FPassing clouds.1 mph72%29.98 "HgN/A
11:00 PM55 °FPassing clouds.1 mph63%29.95 "HgN/A
10:30 PM57 °FPassing clouds.3 mph59%29.98 "HgN/A
10:00 PM57 °FSprinkles. Passing clouds.3 mph51%29.98 "HgN/A
9:30 PM59 °FSprinkles. Passing clouds.6 mph45%30.01 "HgN/A
9:00 PM57 °FPassing clouds.10 mph44%29.98 "Hg3 mi
8:30 PM55 °FFog.8 mph55%29.95 "Hg2 mi
8:00 PM54 °FFog.13 mph67%29.92 "Hg2 mi
7:30 PM54 °FFog.6 mph67%29.89 "Hg2 mi
7:00 PM55 °FFog.8 mph63%29.86 "Hg2 mi
6:30 PM55 °FHaze.13 mph63%29.86 "Hg2 mi
6:00 PM63 °FClear.13 mph49%29.83 "Hg4 mi
5:30 PM64 °FClear.15 mph46%29.80 "Hg4 mi
5:00 PM66 °FClear.17 mph40%29.80 "Hg4 mi
4:30 PM68 °FClear.17 mph38%29.80 "Hg4 mi
4:00 PM70 °FClear.20 mph33%29.80 "Hg5 mi
3:30 PM70 °FClear.17 mph31%29.80 "Hg5 mi
3:00 PM72 °FClear.13 mph29%29.80 "Hg5 mi
2:30 PM72 °FClear.17 mph27%29.80 "Hg5 mi
2:00 PM72 °FClear.20 mph27%29.83 "Hg5 mi
1:30 PM72 °FClear.22 mph27%29.83 "Hg5 mi
1:00 PM72 °FClear.22 mph27%29.83 "Hg5 mi
12:30 PM70 °FSunny.24 mph25%29.83 "Hg10 mi
12:00 PM70 °FSunny.20 mph25%29.86 "Hg10 mi
11:30 AM70 °FPassing clouds.22 mph27%29.86 "HgN/A
11:00 AM70 °FPassing clouds.22 mph25%29.86 "HgN/A
10:30 AM68 °FSunny.22 mph26%29.86 "Hg10 mi
10:00 AM70 °FPassing clouds.17 mph25%29.86 "HgN/A
Weather by CustomWeather, © 2015

See weather overviewHow to use our weather pages